Date String (YYYY-MM-DD hh:mm:ss) UTC,Instrument flags,Ambient pressure (hPa),Sample flow (lpm),Bypass flow (lpm),Sample temperature (°C),Ambient temperature (°C),ASC tube jacket temperature (°C),LED temperature (°C),Box temperature (°C),Sample RH (%),Span deviation,Mass concentration (μg/m³),Mass concentration (μg/m³),Mass concentration (μg/m³)
DateTimeUTC,F1_M11,P_M11,Q1_M11,Q2_M11,T1_M11,T2_M11,T3_M11,T4_M11,T5_M11,U1_M11,ZSPAN_M11,X0_M11,X2_M11,X1_M11
2021-11-24 20:00:00,,0827.0,5.00,0.00,23.9,23.2,00.0,32.8,25.6,07.5,0000.0,0002.52,0001.27,0000.77
2021-11-24 20:01:00,,0827.1,4.99,0.00,23.9,23.2,00.0,32.8,25.7,07.6,0000.0,0002.54,0001.25,0000.76
2021-11-24 20:02:00,,0827.1,5.01,0.00,23.9,23.2,00.0,32.8,25.7,07.7,0000.0,0002.70,0001.26,0000.77
2021-11-24 20:03:00,,0827.4,5.01,0.00,24.0,23.2,00.0,32.8,25.7,07.8,0000.0,0002.79,0001.29,0000.78
2021-11-24 20:04:00,,0827.1,5.00,0.00,24.0,23.2,00.0,32.8,25.7,08.5,0000.0,0003.52,0001.28,0000.81
2021-11-24 20:05:00,,0827.1,5.00,0.00,24.0,23.2,00.0,32.9,25.7,08.3,0000.0,0004.27,0001.32,0000.84
2021-11-24 20:06:00,,0827.1,4.99,0.00,24.0,23.2,00.0,32.9,25.8,07.8,0000.0,0005.17,0001.31,0000.86
2021-11-24 20:07:00,,0827.1,5.01,0.00,24.0,23.3,00.0,32.9,25.8,07.7,0000.0,0006.20,0001.33,0000.86
2021-11-24 20:08:00,,0827.1,4.99,0.00,24.0,23.3,00.0,32.9,25.8,07.6,0000.0,0006.73,0001.34,0000.87
2021-11-24 20:09:00,,0827.1,5.00,0.00,24.0,23.3,00.0,32.9,25.8,07.6,0000.0,0007.81,0001.36,0000.89
2021-11-24 20:10:00,,0827.2,5.01,0.00,24.0,23.3,00.0,32.9,25.8,07.4,0000.0,0007.97,0001.41,0000.91
2021-11-24 20:11:00,,0827.2,4.99,0.00,24.0,23.3,00.0,32.9,25.8,07.1,0000.0,0007.94,0001.41,0000.92
2021-11-24 20:12:00,,0827.1,5.00,0.00,24.0,23.3,00.0,32.9,25.9,06.7,0000.0,0007.86,0001.38,0000.91
2021-11-24 20:13:00,,0827.1,5.01,0.00,24.0,23.3,00.0,33.0,25.9,06.6,0000.0,0007.73,0001.32,0000.89
2021-11-24 20:14:00,,0827.1,5.00,0.00,24.1,23.3,00.0,33.0,25.9,06.3,0000.0,0007.63,0001.26,0000.87
2021-11-24 20:15:00,,0827.3,4.99,0.00,24.1,23.3,00.0,33.0,25.9,06.4,0000.0,0007.10,0001.22,0000.82
2021-11-24 20:16:00,,0827.0,5.01,0.00,24.1,23.3,00.0,33.0,25.9,06.1,0000.0,0006.23,0001.15,0000.76
2021-11-24 20:17:00,,0827.0,5.00,0.00,24.1,23.3,00.0,33.0,25.8,06.1,0000.0,0005.21,0001.11,0000.74
2021-11-24 20:18:00,,0827.3,4.99,0.00,24.1,23.3,00.0,33.0,25.8,06.2,0000.0,0004.22,0001.10,0000.72
2021-11-24 20:19:00,,0827.0,5.00,0.00,24.1,23.3,00.0,33.0,25.7,06.1,0000.0,0003.82,0001.13,0000.71
2021-11-24 20:20:00,,0827.0,5.00,0.00,24.0,23.3,00.0,33.0,25.7,06.0,0000.0,0002.31,0001.07,0000.68
2021-11-24 20:21:00,,0827.5,4.99,0.00,24.0,23.3,00.0,33.0,25.7,06.0,0000.0,0002.84,0001.03,0000.65
2021-11-24 20:22:00,,0827.6,5.01,0.00,24.0,23.2,00.0,33.0,25.6,06.0,0000.0,0003.26,0001.00,0000.63
2021-11-24 20:23:00,,0827.3,5.00,0.00,24.0,23.2,00.0,33.0,25.6,06.1,0000.0,0003.17,0000.96,0000.62
2021-11-24 20:24:00,,0827.1,5.01,0.00,24.0,23.2,00.0,33.0,25.6,06.0,0000.0,0003.38,0000.92,0000.62
2021-11-24 20:25:00,,0827.5,5.00,0.00,24.0,23.2,00.0,33.0,25.6,05.9,0000.0,0003.40,0000.92,0000.61
2021-11-24 20:26:00,,0827.2,4.99,0.00,24.0,23.1,00.0,33.0,25.6,05.9,0000.0,0003.38,0000.90,0000.61
2021-11-24 20:27:00,,0827.0,5.01,0.00,24.0,23.1,00.0,33.0,25.6,05.9,0000.0,0003.44,0000.92,0000.60
2021-11-24 20:28:00,,0827.2,5.00,0.00,23.9,23.1,00.0,33.0,25.6,05.9,0000.0,0003.48,0000.93,0000.60
2021-11-24 20:29:00,,0827.1,5.00,0.00,23.9,23.1,00.0,33.0,25.5,05.9,0000.0,0003.41,0000.91,0000.59
2021-11-24 20:30:00,,0827.2,5.00,0.00,23.9,23.1,00.0,33.0,25.6,06.0,0000.0,0003.21,0000.85,0000.59
2021-11-24 20:31:00,,0827.2,4.99,0.00,23.9,23.1,00.0,33.0,25.5,06.1,0000.0,0003.15,0000.83,0000.58
2021-11-24 20:32:00,,0827.2,5.01,0.00,23.9,23.1,00.0,33.0,25.5,06.1,0000.0,0002.37,0000.81,0000.58
2021-11-24 20:33:00,,0827.3,5.01,0.00,23.9,23.1,00.0,33.0,25.5,06.2,0000.0,0001.81,0000.82,0000.57
2021-11-24 20:34:00,,0827.2,4.99,0.00,23.9,23.1,00.0,33.0,25.6,06.1,0000.0,0002.07,0000.85,0000.57
2021-11-24 20:35:00,,0827.2,5.01,0.00,23.9,23.1,00.0,33.0,25.6,06.0,0000.0,0001.93,0000.86,0000.56
2021-11-24 20:36:00,,0827.3,4.99,0.00,23.9,23.0,00.0,33.0,25.5,06.0,0000.0,0001.85,0000.83,0000.55
2021-11-24 20:37:00,,0827.3,5.01,0.00,23.9,23.0,00.0,33.0,25.5,05.9,0000.0,0001.86,0000.81,0000.54
2021-11-24 20:38:00,,0827.3,5.00,0.00,23.9,22.9,00.0,33.0,25.5,05.8,0000.0,0001.75,0000.77,0000.52
2021-11-24 20:39:00,,0827.3,5.00,0.00,23.9,23.0,00.0,33.0,25.5,06.0,0000.0,0001.72,0000.73,0000.51
2021-11-24 20:40:00,,0827.4,5.00,0.00,23.9,22.9,00.0,32.9,25.5,06.1,0000.0,0001.95,0000.71,0000.50
2021-11-24 20:41:00,,0827.4,4.99,0.00,23.9,22.9,00.0,32.9,25.5,06.2,0000.0,0001.99,0000.71,0000.48
2021-11-24 20:42:00,,0827.4,5.00,0.00,23.9,22.9,00.0,32.9,25.5,06.2,0000.0,0001.99,0000.70,0000.48
2021-11-24 20:43:00,,0827.4,5.01,0.00,23.9,22.9,00.0,32.9,25.5,06.3,0000.0,0002.05,0000.72,0000.47
2021-11-24 20:44:00,,0827.4,4.99,0.00,23.9,23.0,00.0,32.9,25.5,06.3,0000.0,0002.04,0000.71,0000.47
2021-11-24 20:45:00,,0827.4,4.99,0.00,23.9,22.9,00.0,32.9,25.5,06.2,0000.0,0002.63,0000.69,0000.47
2021-11-24 20:46:00,,0827.4,5.01,0.00,23.9,22.9,00.0,32.9,25.5,06.2,0000.0,0003.05,0000.69,0000.47
2021-11-24 20:47:00,,0827.4,5.00,0.00,23.9,22.9,00.0,32.9,25.5,06.3,0000.0,0003.10,0000.69,0000.47
2021-11-24 20:48:00,,0827.4,5.00,0.00,23.9,22.8,00.0,32.9,25.5,06.3,0000.0,0002.99,0000.68,0000.46
2021-11-24 20:49:00,,0827.5,5.00,0.00,23.9,22.8,00.0,32.9,25.5,06.3,0000.0,0003.00,0000.68,0000.46
2021-11-24 20:50:00,,0827.5,5.00,0.00,23.9,22.8,00.0,32.9,25.5,06.4,0000.0,0003.01,0000.69,0000.47
2021-11-24 20:51:00,,0827.5,5.00,0.00,23.9,22.8,00.0,32.9,25.5,06.3,0000.0,0002.83,0000.70,0000.47
2021-11-24 20:52:00,,0827.5,4.99,0.00,23.9,22.9,00.0,32.9,25.5,06.3,0000.0,0002.88,0000.71,0000.47
2021-11-24 20:53:00,,0827.5,5.00,0.00,23.9,22.9,00.0,32.9,25.6,06.3,0000.0,0002.89,0000.70,0000.47
2021-11-24 20:54:00,,0827.5,5.01,0.00,23.9,22.9,00.0,32.9,25.5,06.4,0000.0,0002.83,0000.68,0000.47
2021-11-24 20:55:00,,0827.5,4.99,0.00,23.9,22.9,00.0,32.9,25.5,06.3,0000.0,0002.82,0000.68,0000.46
2021-11-24 20:56:00,,0827.6,5.01,0.00,23.9,22.9,00.0,32.9,25.5,06.3,0000.0,0001.95,0000.66,0000.46
2021-11-24 20:57:00,,0827.5,5.01,0.00,23.9,22.9,00.0,32.9,25.5,06.2,0000.0,0001.35,0000.64,0000.46
2021-11-24 20:58:00,,0827.5,4.99,0.00,23.9,22.9,00.0,32.9,25.5,06.3,0000.0,0001.83,0000.65,0000.46
2021-11-24 20:59:00,,0827.5,5.00,0.00,23.9,22.9,00.0,32.9,25.5,06.3,0000.0,0002.29,0000.65,0000.46
